Estación de Huelquen

Ultimos registro cada 15 minutos 74
Estación Fecha / Hora Temperatura Humedad Lluvia Velocidad Dirección Radiación Presion
74 Huelquen 02-05-2026 18:15 18,9 61 0 0 146 0 1013,6
73 Huelquen 02-05-2026 18:00 21 58 0 0 141 0 1013,5
72 Huelquen 02-05-2026 17:45 23,2 53 0 0 269 7 1013,3
71 Huelquen 02-05-2026 17:30 24,9 48 0 0 269 16 1013,4
70 Huelquen 02-05-2026 17:15 27,2 41 0 0 269 53 1013,3
69 Huelquen 02-05-2026 17:00 28,9 31 0 0 269 91 1013,1
68 Huelquen 02-05-2026 16:45 29,3 31 0 0 187 134 1013
67 Huelquen 02-05-2026 16:30 29,2 31 0 0 246 176 1013,1
66 Huelquen 02-05-2026 16:15 29,3 31 0 0 275 213 1013,2
65 Huelquen 02-05-2026 16:00 29,6 29 0 0 197 250 1013,2
64 Huelquen 02-05-2026 15:45 29,7 27 0 0 311 285 1013,2
63 Huelquen 02-05-2026 15:30 29,1 29 0 0 257 316 1013,2
62 Huelquen 02-05-2026 15:15 28,9 29 0 0 241 350 1013,2
61 Huelquen 02-05-2026 15:00 28,8 30 0 0 285 380 1013,2
60 Huelquen 02-05-2026 14:45 28,4 33 0 0 235 406 1013,3
59 Huelquen 02-05-2026 14:30 28,1 35 0 0 238 432 1013,3
58 Huelquen 02-05-2026 14:15 27,3 38 0 0 264 454 1013,4
57 Huelquen 02-05-2026 14:00 27,2 39 0 0 6 473 1013,7
56 Huelquen 02-05-2026 13:45 26,6 40 0 0 274 490 1013,7
55 Huelquen 02-05-2026 13:30 25,7 41 0 0 56 506 1013,9
54 Huelquen 02-05-2026 13:15 24,7 42 0 0 101 517 1014
53 Huelquen 02-05-2026 13:00 24,1 43 0 0 14 526 1014,3
52 Huelquen 02-05-2026 12:45 23,6 44 0 0 72 531 1014,6
51 Huelquen 02-05-2026 12:30 23,2 48 0 0 265 533 1014,9
50 Huelquen 02-05-2026 12:15 22,5 51 0 0 233 531 1015,2
49 Huelquen 02-05-2026 12:00 21,6 52 0 0 208 519 1015,5
48 Huelquen 02-05-2026 11:45 20,7 53 0 0 181 513 1015,7
47 Huelquen 02-05-2026 11:30 20,3 57 0 0 181 497 1016,1
46 Huelquen 02-05-2026 11:15 19,7 60 0 0 238 483 1016,2
45 Huelquen 02-05-2026 11:00 18,8 63 0 0 324 466 1016,5
44 Huelquen 02-05-2026 10:45 17,9 67 0 0 182 443 1016,8
43 Huelquen 02-05-2026 10:30 16,8 71 0 0 237 417 1017,1
42 Huelquen 02-05-2026 10:15 15,9 75 0 0 294 390 1017,2
41 Huelquen 02-05-2026 10:00 14,4 84 0 0 293 362 1017,5
40 Huelquen 02-05-2026 09:45 13,5 90 0 0 294 327 1017,9
39 Huelquen 02-05-2026 09:30 12,6 92 0 0 119 297 1018
38 Huelquen 02-05-2026 09:15 11,4 94 0 0 110 264 1018
37 Huelquen 02-05-2026 09:00 10,5 94 0 0 138 221 1018
36 Huelquen 02-05-2026 08:45 9,6 94 0 0 141 186 1017,9
35 Huelquen 02-05-2026 08:30 7,8 94 0 0 134 146 1017,7
34 Huelquen 02-05-2026 08:15 6,2 94 0 0 134 107 1017,5
33 Huelquen 02-05-2026 08:00 5,1 92 0 0 134 19 1017,4
32 Huelquen 02-05-2026 07:45 4,7 91 0 0 134 12 1017,5
31 Huelquen 02-05-2026 07:30 4,4 90 0 0 134 7 1017,4
30 Huelquen 02-05-2026 07:15 4,9 90 0 0 134 0 1017,4
29 Huelquen 02-05-2026 07:00 5 90 0 0 134 0 1017,3
28 Huelquen 02-05-2026 06:45 5,1 90 0 0 134 0 1017,1
27 Huelquen 02-05-2026 06:30 5,1 90 0 0 134 0 1017,1
26 Huelquen 02-05-2026 06:15 4,9 89 0 0 134 0 1017,1
25 Huelquen 02-05-2026 06:00 4,9 90 0 0 134 0 1017,1
24 Huelquen 02-05-2026 05:45 4,9 90 0 0 134 0 1017,1
23 Huelquen 02-05-2026 05:30 5 89 0 0 134 0 1017,3
22 Huelquen 02-05-2026 05:15 5,1 89 0 0 134 0 1017,4
21 Huelquen 02-05-2026 05:00 5,4 89 0 0 134 0 1017,4
20 Huelquen 02-05-2026 04:45 6 89 0 0 134 0 1017,5
19 Huelquen 02-05-2026 04:30 6,5 90 0 0 134 0 1017,5
18 Huelquen 02-05-2026 04:15 6,2 89 0 0 134 0 1017,5
17 Huelquen 02-05-2026 04:00 6,2 89 0 0 134 0 1017,7
16 Huelquen 02-05-2026 03:45 6,4 89 0 0 134 0 1017,8
15 Huelquen 02-05-2026 03:30 6,4 89 0 0 134 0 1017,9
14 Huelquen 02-05-2026 03:15 6,8 88 0 0 134 0 1018,3
13 Huelquen 02-05-2026 03:00 6,6 89 0 0 148 0 1018,4
12 Huelquen 02-05-2026 02:45 6,6 87 0 0 139 0 1018,5
11 Huelquen 02-05-2026 02:30 6,9 87 0 0 139 0 1018,6
10 Huelquen 02-05-2026 02:15 7,2 87 0 0 139 0 1019
9 Huelquen 02-05-2026 02:00 7,7 87 0 0 139 0 1019,1
8 Huelquen 02-05-2026 01:45 8 88 0,2 0 139 0 1019,2
7 Huelquen 02-05-2026 01:30 8,2 87 0 0 86 0 1019,5
6 Huelquen 02-05-2026 01:15 8,3 88 0 0 28 0 1019,5
5 Huelquen 02-05-2026 01:00 8 87 0 0 51 0 1019,7
4 Huelquen 02-05-2026 00:45 8,2 86 0 0 189 0 1019,8
3 Huelquen 02-05-2026 00:30 8,4 86 0 0 189 0 1019,7
2 Huelquen 02-05-2026 00:15 8,7 86 0 0 181 0 1019,8
1 Huelquen 02-05-2026 00:00 9,1 85 0 0 356 0 1020,1